GW6948 Weather Reports


time (UTC)temp
C
wind
direction
speed
KPH
gust
KPH
rain 1hr
cm
rain 24hr
cm
rain mn
cm
humidity
%
barometer
mb
20260503070430 11 52 0.0 1.6 0.00 0.00 0.00 82 1016.2
20260503054843 11 230 3.2 3.2 0.00 0.05 0.05 83 1016.4
20260503054339 11 198 0.0 0.0 0.00 0.05 0.05 83 1016.4
20260503053837 11 232 0.0 1.6 0.00 0.05 0.05 84 1016.4
20260503053335 11 239 3.2 3.2 0.00 0.05 0.05 84 1016.6
20260503052831 11 256 1.6 1.6 0.00 0.05 0.05 85 1016.5
20260503052328 11 203 1.6 1.6 0.00 0.05 0.05 85 1016.7
20260503051824 11 183 0.0 1.6 0.00 0.05 0.05 85 1016.9
20260503051321 11 211 1.6 1.6 0.00 0.05 0.05 84 1016.6
20260503050818 11 357 0.0 1.6 0.00 0.05 0.05 82 1016.7
20260503050314 11 279 4.8 8.0 0.00 0.05 0.05 81 1016.9
20260503045812 12 258 1.6 1.6 0.00 0.05 0.05 80 1016.7
20260503045309 12 340 1.6 3.2 0.00 0.05 0.05 79 1016.7
20260503044806 12 193 0.0 0.0 0.00 0.05 0.05 77 1017.1
20260503044303 12 276 3.2 4.8 0.00 0.05 0.05 75 1016.9
20260503043800 12 224 0.0 0.0 0.00 0.05 0.05 73 1017.0
20260503043257 12 229 1.6 1.6 0.00 0.05 0.05 72 1016.7
20260503042752 12 202 1.6 1.6 0.00 0.05 0.05 71 1016.7
20260503042249 12 252 1.6 3.2 0.00 0.05 0.05 72 1016.5
20260503041745 12 340 1.6 1.6 0.00 0.05 0.05 72 1016.5
20260503041243 13 184 0.0 1.6 0.00 0.05 0.05 72 1016.7
20260503040741 13 209 1.6 1.6 0.00 0.05 0.05 71 1016.5
20260503040238 13 217 3.2 3.2 0.00 0.05 0.05 70 1016.7
20260503035734 13 277 1.6 1.6 0.00 0.05 0.05 67 1016.5
20260503035232 13 66 1.6 1.6 0.00 0.05 0.05 66 1016.3
20260503034729 13 35 3.2 3.2 0.00 0.05 0.05 66 1016.6
20260503034226 13 69 1.6 3.2 0.00 0.05 0.05 66 1016.5
20260503033724 13 92 3.2 4.8 0.00 0.05 0.05 66 1016.5
20260503033221 13 182 1.6 3.2 0.00 0.05 0.05 64 1016.5
20260503032719 13 134 3.2 3.2 0.00 0.05 0.05 67 1016.6
20260503032218 13 150 3.2 3.2 0.00 0.05 0.05 66 1016.4
20260503031714 13 149 1.6 1.6 0.00 0.05 0.05 62 1016.5
20260503031213 13 252 0.0 0.0 0.00 0.05 0.05 62 1016.3
20260503030708 13 189 0.0 1.6 0.00 0.05 0.05 63 1016.3
20260503030205 13 174 0.0 1.6 0.00 0.05 0.05 63 1015.7
20260503025702 14 219 4.8 4.8 0.00 0.05 0.05 62 1015.6
20260503025200 13 233 1.6 1.6 0.00 0.05 0.05 63 1015.9
20260503024655 13 20 4.8 4.8 0.00 0.05 0.05 64 1015.5
20260503024153 13 0 1.6 1.6 0.00 0.05 0.05 64 1015.8
20260503023650 13 343 3.2 3.2 0.00 0.05 0.05 64 1015.3
20260503023147 13 254 0.0 0.0 0.00 0.05 0.05 67 1015.6
20260503022643 13 301 3.2 4.8 0.00 0.05 0.05 67 1015.5
20260503022142 13 257 3.2 3.2 0.00 0.05 0.05 66 1015.3
20260503021639 14 329 1.6 1.6 0.00 0.05 0.05 64 1015.4
20260503021136 14 331 8.0 14.5 0.00 0.05 0.05 60 1015.6
20260503020633 14 286 3.2 3.2 0.00 0.05 0.05 63 1015.4
20260503020131 14 319 1.6 1.6 0.00 0.05 0.05 62 1015.4
20260503015628 14 241 0.0 1.6 0.00 0.05 0.05 63 1015.4
20260503015125 14 334 3.2 4.8 0.00 0.05 0.05 63 1015.4
20260503014620 14 5 3.2 3.2 0.00 0.05 0.05 63 1015.4
20260503014118 14 327 6.4 9.7 0.00 0.05 0.05 64 1015.1
20260503013615 14 325 6.4 8.0 0.00 0.05 0.05 64 1015.1
20260503013113 15 355 3.2 8.0 0.00 0.05 0.05 65 1015.4
20260503012610 15 7 4.8 8.0 0.00 0.05 0.05 64 1015.4
20260503012107 15 347 4.8 8.0 0.00 0.05 0.05 62 1015.6
20260503011603 13 35 4.8 4.8 0.00 0.05 0.05 64 1015.8
20260503011101 13 310 4.8 4.8 0.00 0.05 0.05 73 1015.6
20260503010556 13 36 4.8 4.8 0.00 0.05 0.05 73 1015.8
20260503010054 13 50 1.6 3.2 0.18 0.05 0.05 79 1015.8
20260503005551 13 344 1.6 3.2 0.18 0.05 0.05 77 1015.9
20260503005049 13 202 1.6 1.6 0.13 0.03 0.03 73 1015.9
20260503004544 15 176 8.0 9.7 0.13 0.03 0.03 66 1015.8
20260503004043 18 158 12.9 14.5 0.00 0.00 0.00 46 1015.7
20260503003539 18 93 8.0 11.3 0.00 0.00 0.00 39 1015.4
20260503003037 18 359 6.4 9.7 0.00 0.00 0.00 39 1015.5
20260503002533 18 81 4.8 9.7 0.00 0.00 0.00 39 1014.5
20260503002030 18 55 3.2 3.2 0.00 0.00 0.00 38 1014.3
20260503001526 18 356 1.6 1.6 0.00 0.00 0.00 38 1014.1
20260503001024 19 14 8.0 11.3 0.00 0.00 0.00 38 1014.1
20260503000521 19 59 4.8 4.8 0.00 0.00 0.00 37 1014.0
20260503000018 19 17 4.8 8.0 0.00 0.00 0.00 37 1014.1
20260502235514 20 83 3.2 3.2 0.00 0.00 0.00 38 1014.1
20260502235013 20 42 4.8 4.8 0.00 0.00 0.00 36 1014.1
20260502234508 20 89 3.2 9.7 0.00 0.00 0.00 37 1014.2
20260502234006 20 88 3.2 3.2 0.00 0.00 0.00 36 1014.0
20260502233507 20 36 3.2 3.2 0.00 0.00 0.00 36 1013.8
20260502233004 20 340 6.4 12.9 0.00 0.00 0.00 36 1013.8
20260502232500 20 2 6.4 9.7 0.00 0.00 0.00 35 1013.8
20260502231957 20 27 3.2 4.8 0.00 0.00 0.00 35 1013.6
20260502231454 21 298 4.8 4.8 0.00 0.00 0.00 33 1013.9
20260502230952 20 349 1.6 3.2 0.00 0.00 0.00 34 1013.9
20260502230450 21 354 3.2 3.2 0.00 0.00 0.00 33 1013.6
20260502225948 21 333 4.8 4.8 0.00 0.00 0.00 31 1013.9
20260502225444 21 130 0.0 0.0 0.00 0.00 0.00 29 1013.9
20260502224941 21 210 4.8 4.8 0.00 0.00 0.00 29 1014.0
20260502224437 21 198 4.8 4.8 0.00 0.00 0.00 28 1014.3
20260502223934 21 193 3.2 3.2 0.00 0.00 0.00 29 1014.1
20260502223432 21 112 3.2 4.8 0.00 0.00 0.00 29 1014.2
20260502222930 21 196 3.2 4.8 0.00 0.00 0.00 30 1014.2
20260502222427 21 158 0.0 1.6 0.00 0.00 0.00 31 1014.0
20260502221922 21 225 4.8 4.8 0.00 0.00 0.00 30 1014.1
20260502221419 21 126 6.4 8.0 0.00 0.00 0.00 30 1014.2
20260502220916 21 178 3.2 4.8 0.00 0.00 0.00 31 1014.3
20260502220411 20 129 6.4 8.0 0.00 0.00 0.00 31 1014.3
20260502215908 20 139 1.6 1.6 0.00 0.00 0.00 32 1014.7
20260502215406 20 146 3.2 4.8 0.00 0.00 0.00 31 1014.6
20260502214903 20 226 4.8 8.0 0.00 0.00 0.00 31 1014.8
20260502214359 20 169 9.7 12.9 0.00 0.00 0.00 30 1014.7
20260502213857 20 174 6.4 9.7 0.00 0.00 0.00 29 1015.0
20260502213354 21 173 11.3 12.9 0.00 0.00 0.00 30 1014.9
20260502212853 21 178 4.8 4.8 0.00 0.00 0.00 30 1015.0
20260502212351 21 100 6.4 9.7 0.00 0.00 0.00 29 1015.1
20260502211847 21 171 4.8 8.0 0.00 0.00 0.00 30 1015.3
20260502211343 21 151 8.0 8.0 0.00 0.00 0.00 29 1015.1
20260502210841 21 200 4.8 4.8 0.00 0.00 0.00 30 1014.9
20260502210338 21 205 3.2 4.8 0.00 0.00 0.00 30 1015.5
20260502205835 21 150 9.7 9.7 0.00 0.00 0.00 29 1015.3
20260502205331 21 166 4.8 4.8 0.00 0.00 0.00 30 1015.0
20260502204828 21 145 9.7 11.3 0.00 0.00 0.00 29 1015.1
20260502204325 21 196 3.2 3.2 0.00 0.00 0.00 30 1015.1
20260502203822 21 122 1.6 1.6 0.00 0.00 0.00 31 1015.3
20260502203320 21 244 4.8 4.8 0.00 0.00 0.00 30 1015.6
20260502202820 21 148 1.6 1.6 0.00 0.00 0.00 30 1015.4
20260502202318 21 151 3.2 3.2 0.00 0.00 0.00 30 1015.4
20260502201816 21 139 4.8 8.0 0.00 0.00 0.00 30 1015.4
20260502201312 21 134 8.0 9.7 0.00 0.00 0.00 30 1015.4
20260502200808 21 174 4.8 4.8 0.00 0.00 0.00 30 1015.5
20260502200304 21 122 11.3 12.9 0.00 0.00 0.00 29 1015.4
20260502195803 21 179 4.8 8.0 0.00 0.00 0.00 30 1015.5
20260502195259 21 169 4.8 4.8 0.00 0.00 0.00 30 1015.5
20260502194755 21 154 8.0 9.7 0.00 0.00 0.00 29 1015.6
20260502194252 21 166 3.2 4.8 0.00 0.00 0.00 30 1015.5
20260502193748 21 133 11.3 20.9 0.00 0.00 0.00 29 1015.5
20260502193246 21 167 4.8 4.8 0.00 0.00 0.00 29 1015.5
20260502192746 21 158 6.4 8.0 0.00 0.00 0.00 29 1015.5
20260502192244 21 154 8.0 11.3 0.00 0.00 0.00 29 1015.7
20260502191740 21 182 6.4 8.0 0.00 0.00 0.00 29 1015.4
20260502191238 21 143 8.0 11.3 0.00 0.00 0.00 29 1015.6
20260502190735 21 80 8.0 9.7 0.00 0.00 0.00 28 1015.8
20260502190233 21 160 8.0 12.9 0.00 0.00 0.00 29 1015.9
20260502185732 21 114 8.0 9.7 0.00 0.00 0.00 29 1015.8
20260502185229 21 178 8.0 9.7 0.00 0.00 0.00 29 1015.9
20260502184726 21 183 11.3 16.1 0.00 0.00 0.00 28 1015.8
20260502184221 21 84 8.0 11.3 0.00 0.00 0.00 30 1015.9
20260502183718 21 145 6.4 9.7 0.00 0.00 0.00 29 1015.8
20260502183214 21 118 9.7 11.3 0.00 0.00 0.00 29 1016.2
20260502182709 21 116 4.8 11.3 0.00 0.00 0.00 30 1015.9
20260502182205 21 144 8.0 9.7 0.00 0.00 0.00 31 1016.3
20260502181703 21 69 1.6 3.2 0.00 0.00 0.00 30 1016.3
20260502181202 20 39 3.2 4.8 0.00 0.00 0.00 32 1016.2
20260502180658 20 93 3.2 3.2 0.00 0.00 0.00 32 1016.4
20260502180156 20 74 4.8 4.8 0.00 0.00 0.00 31 1016.3
20260502170120 18 131 0.0 1.6 0.00 0.00 0.00 36 1016.7
20260502164107 17 152 3.2 3.2 0.00 0.00 0.00 37 1016.6
20260502163603 18 204 3.2 3.2 0.00 0.00 0.00 36 1016.4
20260502163059 17 94 0.0 0.0 0.00 0.00 0.00 38 1016.5
20260502162556 17 88 1.6 1.6 0.00 0.00 0.00 38 1016.3
20260502162053 16 62 0.0 0.0 0.00 0.00 0.00 38 1017.0
20260502161550 16 161 3.2 3.2 0.00 0.00 0.00 38 1016.7
20260502161048 16 148 3.2 3.2 0.00 0.00 0.00 38 1016.7
20260502160545 16 40 3.2 3.2 0.00 0.00 0.00 39 1016.9
20260502151953 13 103 0.0 0.0 0.00 0.00 0.00 51 1016.7
20260502151449 13 222 1.6 1.6 0.00 0.00 0.00 54 1016.7
20260502150946 13 23 1.6 1.6 0.00 0.00 0.00 55 1016.7
20260502150444 12 75 0.0 1.6 0.00 0.00 0.00 57 1016.7
20260502130329 9 172 0.0 0.0 0.00 0.00 0.00 63 1016.1
20260502123814 10 227 1.6 1.6 0.00 0.00 0.00 58 1015.9
20260502123312 10 202 3.2 3.2 0.00 0.00 0.00 57 1015.9
20260502122808 10 207 3.2 3.2 0.00 0.00 0.00 58 1016.1
20260502122306 10 247 4.8 8.0 0.00 0.00 0.00 58 1015.6
20260502121803 10 262 3.2 3.2 0.00 0.00 0.00 58 1015.9
20260502121300 10 214 1.6 3.2 0.00 0.00 0.00 59 1015.7
20260502120757 10 283 1.6 3.2 0.00 0.00 0.00 59 1015.7
20260502120253 10 238 1.6 1.6 0.00 0.00 0.00 59 1015.7
20260502115751 10 272 3.2 3.2 0.00 0.00 0.00 59 1015.7
20260502115248 10 190 1.6 1.6 0.00 0.00 0.00 59 1015.8
20260502114743 10 184 0.0 0.0 0.00 0.00 0.00 59 1015.8
20260502114241 10 231 0.0 1.6 0.00 0.00 0.00 58 1015.7
20260502113738 10 180 1.6 3.2 0.00 0.00 0.00 58 1015.7
20260502113236 10 144 0.0 1.6 0.00 0.00 0.00 57 1015.9
20260502112734 11 242 1.6 1.6 0.00 0.00 0.00 57 1015.9
20260502112231 11 205 1.6 1.6 0.00 0.00 0.00 56 1015.8
20260502111728 11 222 4.8 4.8 0.00 0.00 0.00 57 1015.8
20260502111226 11 227 1.6 3.2 0.00 0.00 0.00 57 1015.9
20260502110723 11 193 3.2 3.2 0.00 0.00 0.00 56 1015.8
20260502110220 11 210 3.2 3.2 0.00 0.00 0.00 55 1015.6
20260502105718 11 204 1.6 1.6 0.00 0.00 0.00 55 1015.7
20260502105214 11 212 1.6 3.2 0.00 0.00 0.00 55 1015.9
20260502104712 11 235 4.8 8.0 0.00 0.00 0.00 54 1015.8
20260502104209 11 239 1.6 3.2 0.00 0.00 0.00 54 1015.9
20260502103707 11 252 1.6 1.6 0.00 0.00 0.00 53 1015.8
20260502103205 11 289 4.8 4.8 0.00 0.00 0.00 53 1015.7
20260502102701 11 214 1.6 1.6 0.00 0.00 0.00 53 1015.7
20260502102158 11 250 1.6 3.2 0.00 0.00 0.00 52 1015.7
20260502101656 11 196 3.2 3.2 0.00 0.00 0.00 53 1015.7
20260502101154 11 237 1.6 1.6 0.00 0.00 0.00 53 1015.7
20260502100652 11 218 0.0 1.6 0.00 0.00 0.00 53 1015.6
20260502100150 12 166 0.0 0.0 0.00 0.00 0.00 52 1015.6
20260502091124 12 243 4.8 4.8 0.00 0.00 0.00 53 1016.2
20260502090621 12 188 3.2 3.2 0.00 0.00 0.00 53 1015.9
20260502090118 12 190 1.6 3.2 0.00 0.00 0.00 53 1016.2
20260502071516 14 258 4.8 4.8 0.00 0.00 0.00 48 1016.6
20260502071014 14 170 0.0 1.6 0.00 0.00 0.00 48 1016.7